Flag for USA Past Weather in Avalon (Santa Catalina Island), California, USA — Yesterday and Last 2 Weeks

Now
54 °F

Passing clouds.


Feels Like: 51 °F
Forecast: 57 / 67 °F
Wind: 10 mph from West

Location: Catalina Airport

Current Time: Apr 24, 2017 at 11:56:30 pm

Latest Report: Apr 24, 2017 at 11:01 pm


Visibility: 10 mi

Pressure: 29.90 "Hg

Humidity: 93%

Dew Point: 52 °F

Location of Avalon (Santa Catalina Island)Location

Past Weather in Avalon (Santa Catalina Island) — Graph

°F

Avalon (Santa Catalina Island) Temperature Yesterday

Maximum temperature yesterday: 70 °F (at 11:51 am)
Minimum temperature yesterday: 52 °F (at 9:17 pm)
Average temperature yesterday: 59 °F

High & Low Weather Summary for the Past Weeks

 TemperatureHumidityPressure
High83 °F (Apr 22, 12:51 pm)100% (Apr 18, 7:51 pm)30.15 "Hg (Apr 18, 7:51 pm)
Low52 °F (Apr 23, 9:17 pm)16% (Apr 22, 3:51 pm)29.79 "Hg (Apr 23, 4:51 am)
Average63 °F66%29.94 "Hg
* Reported Apr 18 7:51 pm — Apr 24 9:51 pm, Avalon (Santa Catalina Island), Weather by CustomWeather, © 2017

Note: Actual official high and low records may vary slightly from our data, if they occured in-between our weather recording intervals... More about our weather records

Advertising

Avalon (Santa Catalina Island) Weather History for the Previous 24 Hours

Scroll right to see more
 ConditionsComfort  
Time TempWeatherWind HumidityBarometerVisibility
9:51 pm
Mon, Apr 24
53 °FFog.16 mph100%29.88 "Hg0 mi
8:53 pm53 °FFog.13 mph96%29.90 "Hg1 mi
7:51 pm56 °FPassing clouds.9 mph75%29.88 "Hg10 mi
6:51 pm54 °FPassing clouds.13 mph90%29.88 "Hg7 mi
6:16 pm57 °FPassing clouds.16 mph81%29.91 "Hg9 mi
5:51 pm59 °FSunny.13 mph78%29.89 "Hg10 mi
4:51 pm61 °FSunny.10 mph75%29.88 "Hg9 mi
3:51 pm61 °FScattered clouds.9 mph78%29.90 "Hg9 mi
3:15 pm58 °FFog.8 mph90%29.94 "Hg3 mi
2:51 pm60 °FLow clouds.8 mph83%29.92 "Hg8 mi
2:00 pm62 °FPartly sunny.8 mph78%29.96 "Hg9 mi
1:33 pm63 °FScattered clouds.9 mph75%29.96 "Hg9 mi
12:51 pm62 °FOvercast.5 mph78%29.95 "Hg10 mi
11:51 am63 °FOvercast.3 mph78%29.95 "Hg9 mi
11:15 am61 °FLow clouds.3 mph78%29.98 "Hg10 mi
10:51 am60 °FOvercast.3 mph80%29.95 "Hg10 mi
10:37 am63 °FPartly sunny.No wind73%29.97 "Hg10 mi
10:04 am61 °FScattered clouds.5 mph78%29.97 "Hg10 mi
9:51 am61 °FPartly sunny.6 mph78%29.94 "Hg10 mi
9:16 am62 °FScattered clouds.3 mph78%29.95 "Hg9 mi
8:51 am60 °FPartly sunny.No wind83%29.92 "Hg9 mi
8:32 am58 °FPartly sunny.No wind93%29.94 "Hg8 mi
7:51 am57 °FFog.No wind93%29.92 "Hg6 mi
7:33 am56 °FFog.6 mph97%29.93 "Hg6 mi
6:51 am54 °FFog.7 mph100%29.89 "Hg4 mi
5:51 am53 °FFog.7 mph100%29.87 "Hg4 mi
5:27 am54 °FFog.9 mph100%29.89 "Hg3 mi
5:20 am54 °FFog.10 mph100%29.89 "Hg1 mi
4:51 am54 °FFog.6 mph100%29.86 "Hg0 mi
4:40 am54 °FFog.5 mph97%29.88 "Hg5 mi
4:33 am53 °FFog.5 mph100%29.88 "Hg2 mi
4:15 am54 °FFog.3 mph100%29.88 "Hg3 mi
4:07 am54 °FFog.5 mph100%29.88 "Hg2 mi
3:43 am55 °FFog.3 mph100%29.87 "Hg1 mi
3:19 am54 °FFog.6 mph100%29.87 "Hg4 mi
3:02 am54 °FFog.6 mph100%29.88 "Hg2 mi
1:51 am54 °FClear.3 mph97%29.84 "Hg10 mi
1:38 am54 °FPassing clouds.3 mph100%29.88 "Hg8 mi
12:51 am54 °FFog.6 mph100%29.85 "Hg0 mi
12:22 am54 °FFog.6 mph100%29.90 "Hg1 mi
12:01 am54 °FFog.5 mph100%29.90 "Hg3 mi
11:37 pm
Sun, Apr 23
54 °FFog.6 mph100%29.89 "Hg1 mi
Weather by CustomWeather, © 2017

See weather overviewHow to use our weather pages